Regional Weather Roundup
Issued by NWS Midland/Odessa, TX

Skip options and go directly to product.
Home | Oldest Version | Previous Version | Current Version | All | Text Only | Save Text | Print | Product List | Glossary On

Skip product version selection by date and time.   
682
ASUS44 KMAF 301010
RWRMAF
MIDLAND AREA WEATHER ROUNDUP
NATIONAL WEATHER SERVICE MIDLAND TX
500 AM CDT SAT AUG 30 2014

...IN SOUTHWEST TEXAS AND SOUTHEAST NEW MEXICO...

CITY           SKY/WX    TMP DP  RH WIND       PRES   REMARKS
ALPINE         CLEAR     65  58  78 SW5       30.15F
ANDREWS        FAIR      68  64  86 S5        30.04S
ARTESIA        NOT AVBL
BIG SPRING     CLEAR     74  71  89 CALM      30.03F
CARLSBAD       PTCLDY    73  60  63 CALM      30.03S
DRYDEN           N/A     79  67  66 N6        29.96S
FORT STOCKTON  CLEAR     74  62  66 SE9       30.02R
GUAD PASS      PTCLDY    69  58  67 NE23      30.17S
HOBBS          CLEAR     68  61  77 CALM      30.08S
MARFA          CLEAR     57  46  67 N5        30.14F
MIDLAND AIRPK  CLEAR     74  64  70 SE3       30.03S
MIDLAND INTL   CLEAR     72  63  73 SE6       30.02R
ODESSA         CLEAR     73  62  68 SE8       30.03S
PECOS          PTCLDY    73  63  71 E9        29.99S
PRESIDIO       FAIR      79  62  55 N9        29.97S
SEMINOLE       CLEAR     67  64  89 CALM      30.06R
SNYDER         CLEAR     70  67  89 CALM      30.01S
WINK           CLEAR     74  64  71 SE7       30.00S
$$
...OTHER STATIONS IN TEXAS...

CITY           SKY/WX    TMP DP  RH WIND       PRES   REMARKS
ABILENE        CLEAR     74  69  85 S10       29.98R
AMARILLO       PTCLDY    65  61  87 SW9       30.06S
AUSTIN         CLOUDY    74  72  93 CALM      29.93S
BROWNSVILLE    TSTM      75  74  96 SW8       29.85F
CORPUS CHRISTI MOCLDY    78  76  93 S3        29.86F
DALLAS FTW     CLOUDY    78  71  79 S9        29.94S
DEL RIO        CLEAR     81  70  69 E9        29.91S
EL PASO        MOCLDY    75  49  39 SE5       30.03S
HOUSTON INT    MOCLDY    75  73  94 NE5       29.90S
LUBBOCK        CLEAR     65  62  90 CALM      30.05R
SAN ANGELO     CLEAR     69  66  90 S3        29.97F
SAN ANTONIO    PTCLDY    77  74  90 E3        29.93F
WACO           PTCLDY    75  71  87 S8        29.94S
WICHITA FALLS  NOT AVBL
$$
...OTHER LOCATIONS IN NEW MEXICO...

CITY           SKY/WX    TMP DP  RH WIND       PRES   REMARKS
ALAMAGORDO     PTCLDY    66  48  52 NE8       30.07S
ALBUQUERQUE    CLEAR     66  40  38 N6        30.15S
CANNON AFB     PTCLDY    64  61  90 CALM      30.11S
CLOVIS           N/A     63  55  77 SW5       30.13S
HOLLOMAN AFB   MOCLDY    65  49  56 NE7       30.05R
ROSWELL        CLEAR     67  56  67 W6        30.07R
RUIDOSO        CLEAR     55  45  67 S6        30.29S
SANTA FE       CLEAR     60  42  51 E9        30.22S
TRUTH OR CONSE CLOUDY    67  49  52 NW7       30.09S
TUCUMCARI      PTCLDY    69  49  48 W8        30.09S
$$

USA.gov is the U.S. government's official web portal to all federal, state and local government web resources and services.